Wind_Speed
34 35 36 36 37 38 37 36 35 36 37 37 37 36 35 32 31 33 34 34 34 34 34 34 34 33 31 28 27 24 22 22 22 21 22 22 23 25 27 27 27 27 27 26 25 24 24 22 22 24 22 21 21 20 18 17 17 17 16 15 14 18 20 19 20 20 20 21 20 20 19 19 18 17 18 17 16 15 16 17 17 17 17 17 18 19 19
33 33 35 34 33 35 39 41 40 38 38 38 38 37 34 31 30 31 32 32 32 32 32 32 33 32 30 27 27 27 26 24 23 22 21 22 23 24 26 27 28 28 29 29 29 29 29 30 29 27 26 25 24 22 20 20 18 17 17 16 15 18 22 22 20 19 19 19 19 18 19 19 18 17 18 19 18 18 18 19 19 19 19 20 20 21 21
31 31 33 33 31 31 32 34 37 37 35 34 35 35 32 29 29 31 31 31 31 30 30 29 29 29 28 26 26 27 27 25 23 22 21 21 23 24 25 26 28 28 29 29 28 29 29 29 29 28 27 25 22 21 22 21 19 18 18 18 18 21 23 21 19 17 16 18 19 19 19 20 19 19 20 20 21 21 21 20 20 20 21 21 21 22 22
30 29 30 30 31 32 30 29 31 32 31 29 29 32 32 29 29 31 33 33 34 35 34 32 30 29 27 26 25 25 25 24 21 20 20 21 22 23 24 25 27 28 29 29 29 29 29 28 27 26 25 24 22 21 21 20 20 20 20 20 21 23 24 22 21 19 18 20 20 20 20 21 21 21 21 21 21 21 21 21 21 21 22 22 22 22 23
29 29 30 30 31 33 33 32 31 30 30 28 27 29 31 30 30 31 32 31 31 35 36 33 31 31 30 29 28 25 23 22 19 16 15 17 20 23 24 25 27 29 30 30 30 29 28 27 26 25 25 24 24 23 23 22 22 22 22 21 23 25 27 26 26 23 21 20 21 22 23 24 24 24 24 23 22 22 22 22 22 23 23 23 24 25 25
27 27 27 28 30 32 33 34 32 31 32 32 30 30 31 28 26 26 26 26 25 27 31 33 33 32 32 33 32 29 27 24 22 20 17 16 19 22 24 26 28 30 31 31 29 29 28 27 27 27 27 26 26 26 26 25 24 24 24 24 25 27 27 27 26 25 24 24 25 26 27 27 27 27 27 26 25 25 25 25 25 26 26 27 27 27 28
23 24 25 24 24 26 27 29 30 30 31 33 33 34 33 31 28 26 24 25 27 27 26 27 30 31 31 32 33 33 32 30 29 28 25 22 22 23 25 27 29 31 32 31 31 31 31 31 31 31 31 31 30 29 28 27 27 27 27 28 29 29 30 29 29 29 29 29 30 31 31 30 30 30 30 30 29 29 29 30 30 31 31 31 32 32 33
18 19 21 21 20 20 21 22 23 23 25 28 31 33 34 34 34 31 24 22 26 28 27 26 28 30 31 32 32 33 33 32 30 28 26 26 26 26 26 28 30 31 33 33 34 34 34 34 34 35 35 35 34 33 31 30 30 30 31 32 33 33 34 34 34 33 33 33 34 34 34 34 34 34 34 34 34 34 34 35 35 35 35 35 36 37 38
17 17 18 18 18 19 20 20 20 20 21 24 25 26 29 31 33 34 31 28 28 29 32 34 36 36 35 35 34 33 32 31 30 29 28 27 28 28 28 29 31 33 34 36 37 37 36 37 38 38 38 38 37 36 35 34 33 33 35 36 36 36 37 38 38 38 38 38 38 38 37 37 38 38 38 38 38 38 38 39 39 39 39 39 39 40 41
19 20 19 19 18 18 18 20 21 19 21 26 26 25 25 26 27 30 31 30 30 30 31 34 36 38 39 39 38 36 35 34 34 33 32 30 29 30 30 30 31 33 35 37 38 38 39 39 41 42 42 41 40 40 38 37 37 37 37 38 39 39 39 41 42 42 42 42 42 42 42 42 42 43 43 42 42 42 42 43 43 43 42 41 41 41 41
21 21 21 21 22 21 19 20 20 17 18 23 26 28 28 27 26 26 26 26 28 28 27 28 30 34 37 38 39 38 38 37 38 38 36 34 33 33 33 33 33 34 36 38 39 40 41 41 42 42 43 44 44 44 42 41 40 40 40 41 42 43 44 45 46 46 46 47 47 47 47 47 47 46 46 46 46 47 47 47 46 44 43 42 42 41 41
21 21 22 22 24 25 23 23 23 21 21 22 22 23 26 25 23 23 23 24 26 26 26 27 28 29 30 30 30 31 31 31 33 36 38 39 38 38 37 36 36 36 37 39 41 43 44 45 45 44 43 44 44 44 45 45 45 44 44 44 45 46 46 46 47 48 48 49 51 51 52 52 51 51 50 50 50 51 51 51 50 48 46 45 45 44 44
21 22 23 23 25 25 25 25 26 25 23 22 21 21 22 22 22 22 22 23 25 25 26 26 25 24 24 24 24 24 24 25 27 30 34 37 40 40 40 40 40 39 40 41 43 45 46 47 49 49 48 48 47 45 45 46 47 47 46 47 48 48 48 47 48 49 49 50 52 53 54 55 55 54 53 53 53 53 53 54 54 52 51 51 50 51 51
19 21 22 24 26 26 25 25 26 26 25 23 21 21 20 20 21 22 23 23 24 25 26 26 25 24 24 25 25 25 24 25 26 27 29 32 34 36 38 39 41 41 42 44 45 47 48 49 50 50 49 49 48 46 43 42 42 42 42 43 44 46 46 46 47 48 49 49 50 51 52 52 52 52 51 52 52 52 52 54 55 56 56 56 56 56 56
17 18 20 22 24 26 27 26 26 27 28 27 24 24 24 24 24 23 23 22 23 25 27 27 28 28 28 28 27 27 26 27 28 29 30 30 31 32 34 35 37 39 41 43 46 48 50 51 52 52 52 50 49 48 46 45 45 44 43 44 44 45 46 46 47 47 48 48 48 48 49 50 51 51 53 54 55 56 57 58 59 59 60 60 60 60 60
22 21 21 21 22 24 27 28 28 29 30 29 27 26 26 27 27 27 27 26 26 27 28 29 30 31 32 32 31 29 28 29 31 33 33 33 33 34 34 35 35 37 38 40 42 45 48 49 51 53 54 55 55 55 54 53 52 50 49 48 48 49 49 50 51 52 52 53 54 55 56 57 58 59 60 61 62 63 63 63 63 63 64 64 64 64 65
25 25 24 24 25 26 27 28 29 30 31 32 31 29 27 27 28 29 30 31 30 30 32 33 34 35 35 35 34 33 32 32 34 36 36 36 36 35 36 37 37 38 39 40 41 43 44 46 48 50 52 53 54 55 55 54 53 52 51 51 51 51 51 52 53 54 55 57 58 59 61 62 63 63 64 65 65 66 66 66 66 67 67 67 67 67 67
27 27 26 26 27 28 29 29 30 31 31 32 33 32 29 28 29 31 33 34 35 35 36 36 37 37 37 36 36 36 36 36 37 38 38 37 37 37 37 38 39 40 41 42 43 44 45 46 47 49 50 51 52 53 53 54 53 53 53 53 53 53 54 54 55 55 56 58 59 60 61 62 63 64 64 65 66 67 67 68 68 69 69 69 69 69 69
29 29 29 30 30 30 31 32 33 34 34 34 35 35 34 32 32 33 36 38 38 39 39 40 40 40 39 39 39 39 39 39 39 39 39 39 39 39 40 41 41 42 42 43 43 44 45 45 46 47 48 49 50 50 51 52 52 52 52 53 53 53 54 55 55 56 57 58 59 60 61 62 63 64 65 66 66 67 68 69 69 70 70 70 71 71 71
26 27 28 30 31 32 32 33 34 36 37 37 38 39 39 38 38 38 39 41 41 41 41 42 42 41 41 41 41 41 41 41 40 40 40 41 41 41 42 43 44 43 43 43 44 45 45 46 46 47 47 48 48 48 49 50 51 52 53 54 55 55 56 57 58 59 59 60 61 62 63 64 64 65 66 67 68 69 70 71 71 72 72 73 73 73 73
25 25 26 27 27 27 28 29 31 33 34 36 37 38 39 40 40 40 41 42 43 44 44 45 45 45 44 44 43 42 42 41 40 40 40 40 40 41 43 45 45 45 44 45 45 46 47 47 48 49 50 50 51 51 52 53 54 55 56 57 58 59 60 60 61 61 62 62 63 64 64 65 66 67 68 69 70 70 71 72 72 73 73 72 72 73 73
25 25 25 25 25 24 24 24 25 27 28 30 31 33 34 36 37 38 39 40 41 42 44 46 47 47 47 47 47 45 43 42 40 40 40 40 40 40 42 44 45 46 47 48 48 49 50 51 51 52 53 54 55 55 56 57 57 59 59 60 61 62 62 62 63 63 63 64 64 65 65 66 67 68 68 69 70 70 70 70 70 70 70 70 70 70 70
25 25 25 25 25 25 23 23 23 23 23 24 26 27 28 30 31 32 34 35 37 38 40 42 44 45 46 47 47 47 46 45 44 44 45 45 45 44 44 45 46 47 48 49 50 51 52 52 53 54 55 56 57 58 59 59 60 60 60 60 61 61 61 62 62 62 63 63 63 64 64 65 65 65 65 65 66 66 66 66 66 65 66 66 66 66 65
24 24 24 24 25 25 24 24 25 24 23 24 23 24 24 25 26 27 28 29 31 32 34 35 36 37 38 40 42 43 44 44 45 46 48 50 50 49 49 49 49 50 50 51 52 53 53 54 55 56 57 58 58 59 59 59 59 59 59 59 59 59 59 59 59 59 59 60 60 60 60 60 61 61 60 60 59 59 60 60 60 60 60 60 61 61 61
22 23 23 23 25 25 25 25 26 26 25 24 23 23 24 25 25 25 25 26 27 28 29 29 29 29 31 32 34 35 37 39 41 44 46 47 48 49 49 50 49 49 50 50 51 51 52 52 53 53 54 54 54 55 55 55 54 54 54 54 54 54 54 54 54 54 55 55 55 56 56 56 56 55 55 54 53 53 52 52 52 52 52 51 51 52 52
22 22 22 23 24 25 26 26 26 26 26 25 24 25 26 26 26 25 25 26 26 27 27 28 27 27 27 27 28 29 30 31 33 35 37 38 39 41 43 43 44 44 44 44 45 45 45 46 46 46 47 47 47 47 48 48 48 48 48 49 49 49 50 50 51 51 51 51 51 51 50 50 49 48 47 46 45 44 43 42 41 41 41 41 41 42 43
22 22 23 24 24 25 26 27 26 27 27 26 25 26 27 28 28 27 26 26 26 26 27 27 27 27 26 26 26 27 26 26 27 28 29 30 31 32 34 35 36 37 37 38 39 39 40 40 41 41 42 42 42 43 43 43 44 44 45 45 46 47 47 47 47 46 45 44 43 42 41 40 39 38 37 36 35 35 35 34 35 36 37 37 38 39 40
23 23 23 24 25 25 26 26 27 27 28 27 26 26 27 28 28 28 26 26 26 27 26 26 26 26 26 27 27 27 27 27 27 27 27 27 28 29 30 31 32 33 33 35 36 36 37 37 38 38 39 39 39 40 40 41 42 42 43 43 42 41 41 40 38 37 36 35 34 33 32 31 31 30 30 31 31 32 33 33 34 35 37 39 40 41 43
24 24 24 24 25 26 26 27 27 27 28 28 27 27 27 28 29 28 27 27 27 27 26 25 25 25 26 26 27 27 27 27 27 27 27 28 28 29 30 31 31 32 33 33 33 34 34 34 35 35 36 36 37 38 39 39 39 38 36 35 33 32 31 30 29 28 28 28 27 27 27 27 28 28 29 30 31 32 34 35 37 38 41 43 45 47 48
24 24 24 25 26 26 27 27 27 27 27 27 27 26 26 27 28 28 28 27 26 26 25 25 25 25 25 25 26 26 26 26 26 26 27 27 28 28 29 29 29 30 30 30 30 31 31 32 32 33 34 35 35 34 33 32 30 29 27 26 25 24 24 24 24 24 24 24 24 25 25 26 27 28 29 31 32 34 36 38 41 44 47 49 52 53 54
25 25 25 25 26 26 27 27 27 27 27 27 27 26 26 26 27 27 27 27 26 25 25 25 25 25 25 25 25 25 25 25 25 25 25 26 26 26 27 27 28 28 28 28 29 29 29 30 30 30 30 29 28 27 25 24 22 22 22 21 21 21 21 21 21 21 21 22 22 23 24 25 26 28 29 31 33 36 38 42 45 48 51 52 51 50 48
27 26 25 25 25 26 26 26 25 25 26 26 26 25 25 25 25 26 26 26 25 25 25 25 25 25 25 25 25 24 24 24 24 24 24 25 25 25 26 26 27 27 27 27 27 26 26 25 25 24 23 22 21 20 20 20 20 19 19 19 19 19 19 19 19 20 20 21 21 22 23 25 26 27 29 30 32 36 40 44 46 46 44 40 36 33 32
29 27 26 26 26 25 25 24 24 24 25 25 25 24 24 24 24 25 25 25 24 24 24 24 25 25 25 24 24 24 23 23 23 23 24 24 25 25 26 26 26 26 26 24 23 21 20 20 19 18 18 17 17 18 19 19 19 18 18 19 19 18 18 19 19 20 20 20 21 21 22 23 24 25 26 29 32 36 40 41 39 34 29 24 21 20 20
29 28 27 27 26 24 23 23 23 23 24 24 24 23 23 24 24 24 24 24 24 24 24 24 24 24 24 24 23 23 23 23 23 23 23 24 24 25 25 25 25 24 22 19 17 17 16 15 15 15 15 15 15 16 16 16 16 16 16 17 17 18 18 19 19 20 20 20 20 20 21 22 22 23 25 28 32 36 37 35 29 23 18 16 14 12 10
27 26 26 26 24 22 21 22 22 22 22 23 22 22 22 22 23 23 23 24 23 23 23 23 23 23 23 23 23 23 22 22 22 22 23 24 24 24 24 24 22 19 17 15 15 14 14 13 13 13 12 13 13 14 13 12 12 12 13 14 15 16 17 18 18 19 19 19 19 19 20 21 21 22 24 28 31 35 36 31 23 17 15 13 11 8 6
24 24 24 22 21 20 19 20 20 20 20 21 22 21 21 21 20 21 22 22 22 21 22 23 23 23 23 23 23 22 22 22 22 22 22 23 23 23 22 21 18 16 15 15 14 14 13 12 11 11 11 11 12 12 11 10 9 10 10 12 13 14 14 15 16 16 17 17 18 18 19 19 20 21 23 27 30 33 34 29 20 15 13 11 9 9 11
20 20 20 19 19 18 17 17 17 17 17 18 19 20 20 19 19 19 20 21 20 20 21 22 22 22 22 22 22 22 22 22 21 21 21 21 21 21 20 18 16 15 15 15 14 14 14 13 11 11 11 11 12 11 10 9 9 9 9 9 10 11 11 12 13 14 14 15 16 16 17 18 19 20 22 25 28 31 32 28 20 14 11 8 8 10 13
19 19 18 18 17 16 15 15 15 15 15 15 16 17 18 18 17 18 18 19 18 19 20 21 21 21 22 22 22 22 22 21 21 20 20 20 20 19 18 16 15 15 15 15 14 14 13 13 11 11 11 11 12 12 11 9 9 10 10 10 10 10 11 11 12 13 13 14 14 15 15 16 18 20 22 24 26 29 30 28 20 14 11 9 8 9 11
19 19 18 17 16 14 13 12 12 13 14 14 13 14 15 16 16 16 17 17 17 18 18 19 20 20 21 21 21 21 21 20 19 19 19 19 19 18 17 16 15 15 14 14 14 13 11 10 9 9 10 11 11 12 12 11 11 11 11 11 11 11 12 12 12 13 13 14 15 15 16 16 17 19 21 23 25 27 29 28 21 13 11 10 9 9 9
17 19 18 18 17 16 14 13 12 12 14 14 13 13 13 14 14 15 16 16 16 16 17 18 18 19 20 20 20 20 20 19 18 17 18 18 19 18 17 16 16 15 14 14 13 12 11 9 9 9 10 10 10 11 10 10 11 11 12 12 12 13 13 13 13 13 14 14 15 16 16 17 17 18 19 21 24 26 28 27 20 12 9 9 9 8 7
15 17 18 18 18 17 16 16 15 15 15 16 15 14 13 13 13 14 15 14 14 15 16 17 17 18 19 19 19 19 19 18 17 16 17 18 19 18 18 17 17 16 15 15 14 13 12 11 10 10 10 10 10 9 9 9 10 11 11 12 13 13 13 13 14 14 14 15 15 16 16 17 18 18 18 20 22 25 27 26 20 11 6 5 5 5 5
16 16 16 17 17 16 16 17 17 16 16 17 17 16 15 14 14 14 14 13 13 14 15 16 16 17 17 18 18 18 18 17 16 15 16 18 19 18 19 19 18 16 16 16 16 14 13 12 11 10 11 10 10 9 9 9 10 11 11 12 13 13 13 13 14 14 14 14 15 16 16 17 17 18 18 18 20 22 25 24 20 13 6 2 2 2 3
17 17 16 16 15 15 15 16 17 16 16 17 18 19 18 18 17 16 15 14 13 13 14 15 15 16 16 16 17 17 17 17 16 15 16 17 18 19 20 20 19 18 18 18 18 16 14 13 12 11 11 11 10 10 9 10 10 11 12 13 14 13 13 13 14 14 14 14 14 15 15 16 17 17 17 17 18 20 22 22 19 14 9 4 2 4 6
16 16 16 16 16 15 15 16 16 16 16 18 19 20 20 19 19 18 16 15 14 14 14 14 14 15 15 16 16 16 17 17 16 15 15 17 18 20 21 21 21 20 20 20 20 18 16 14 13 12 12 11 11 11 11 11 11 12 13 14 14 13 13 13 13 13 14 14 14 14 15 15 15 16 17 17 16 17 18 19 17 14 10 7 6 7 8
17 16 17 17 17 16 15 13 12 13 15 16 18 18 18 18 18 18 18 16 15 14 14 14 14 14 15 15 15 16 16 17 17 16 16 17 18 19 20 21 22 21 20 19 19 18 16 14 13 13 13 12 12 12 12 12 13 13 13 14 13 13 12 12 12 12 12 13 13 13 14 14 14 14 15 15 15 14 14 14 13 12 9 8 9 10 11
18 17 17 17 16 15 13 11 11 12 14 15 16 17 18 18 18 17 17 17 16 15 15 15 15 14 14 15 15 15 16 16 17 17 17 17 18 18 19 20 20 19 18 18 18 17 16 15 15 14 14 13 13 13 13 13 14 14 14 13 13 12 12 12 11 11 11 11 11 12 12 12 12 12 13 13 13 13 11 9 8 9 9 9 10 10 10
17 17 16 16 15 13 13 12 12 13 14 15 16 16 17 18 17 17 16 15 15 14 14 14 14 14 14 14 14 14 15 16 17 17 17 17 17 17 18 18 18 17 18 18 18 18 17 16 15 14 14 13 13 13 13 14 14 14 13 13 13 12 12 12 11 11 11 10 10 10 11 11 11 11 11 11 12 11 9 6 3 3 5 6 5 4 4
18 17 16 15 14 13 12 12 12 13 13 14 14 15 15 15 16 15 15 14 14 13 12 12 13 13 14 14 14 14 14 15 16 17 17 17 16 16 17 17 18 19 19 19 19 18 17 16 15 14 13 13 12 12 12 13 13 13 13 13 13 12 12 12 12 12 11 11 11 10 10 10 10 10 10 10 10 10 9 6 3 2 2 3 3 3 4
20 18 16 15 14 13 12 11 10 10 12 13 13 13 12 12 12 12 13 14 13 12 12 11 11 12 13 13 13 14 13 14 15 16 16 16 16 16 17 17 18 19 20 20 19 18 17 16 15 14 13 12 11 11 11 12 12 12 13 13 13 13 13 13 13 13 13 13 12 12 11 11 10 10 10 10 10 9 8 7 5 4 3 5 6 7 8
23 20 17 16 15 14 13 10 8 8 11 14 14 12 11 10 10 10 12 12 12 12 13 13 12 12 12 12 13 13 13 13 14 15 16 16 16 16 17 18 19 19 20 19 18 17 16 15 15 14 13 12 11 11 11 11 12 12 12 13 13 14 14 14 14 15 15 14 13 12 12 11 11 10 10 10 10 9 9 8 7 5 5 4 4 5 6
22 21 19 17 16 15 14 12 10 11 13 14 13 12 12 12 13 12 12 12 12 12 13 14 14 13 12 12 12 13 13 14 14 15 16 16 16 16 17 18 19 19 19 19 18 17 16 15 15 15 14 13 12 12 12 12 12 11 12 12 13 13 14 15 16 16 16 15 14 13 12 12 11 11 11 11 11 10 10 9 8 7 6 6 5 5 4
18 18 18 16 15 15 14 13 12 12 13 13 13 14 16 17 16 14 13 13 13 13 13 13 13 13 13 13 14 14 14 14 15 16 16 17 17 17 18 18 19 19 19 19 18 18 17 17 17 16 16 15 14 13 13 13 12 12 12 12 13 13 14 15 16 16 16 15 15 14 13 13 13 12 12 11 11 11 10 10 9 8 8 7 7 7 6
Wind_Direction
221 222 224 225 226 228 229 229 229 231 230 227 226 225 225 227 228 230 235 238 237 239 242 244 244 246 249 247 239 237 243 251 254 254 254 251 247 246 247 249 252 254 258 260 258 257 258 261 274 287 285 279 276 273 264 259 260 259 260 266 253 237 237 233 221 222 224 221 223 228 230 232 233 235 237 239 243 245 245 250 255 256 258 261 263 265 266
222 226 228 229 229 230 232 233 232 230 228 225 223 223 224 227 228 229 231 233 235 236 240 243 243 243 247 247 242 244 249 253 254 256 257 255 251 252 251 253 257 260 260 262 264 265 266 267 272 276 276 277 278 275 269 266 263 262 263 263 249 237 241 240 229 221 220 220 226 231 231 231 233 235 239 242 246 246 246 250 253 253 254 257 259 261 262
226 232 235 235 235 231 230 231 230 226 222 221 221 223 226 227 230 233 233 233 234 235 236 240 239 237 242 248 249 249 249 249 252 254 256 257 255 255 256 258 262 263 263 264 265 267 269 272 274 275 275 276 276 273 271 269 266 263 260 255 247 241 238 236 233 233 233 235 239 239 234 235 238 242 244 245 247 247 247 248 249 249 250 252 255 259 261
228 234 238 238 238 237 236 236 232 226 223 223 226 229 230 231 232 237 238 237 237 237 238 240 242 240 242 250 252 249 247 247 248 252 258 260 259 258 260 262 263 265 265 265 266 268 269 271 272 272 273 273 272 271 271 270 268 266 263 257 251 245 241 243 255 262 256 249 248 245 242 244 247 249 248 247 248 247 248 250 250 250 252 253 256 258 259
230 233 238 240 241 243 244 245 244 239 234 236 241 240 235 233 235 240 242 238 235 236 237 241 246 245 242 247 249 247 247 248 248 252 259 262 262 259 257 258 260 261 262 262 262 263 264 265 266 267 268 269 269 270 270 271 272 272 271 267 259 253 253 258 264 266 260 254 251 248 247 249 250 250 250 250 249 248 250 252 253 255 259 260 261 262 261
232 231 235 239 241 243 246 249 251 252 248 245 246 244 240 238 239 241 243 241 238 238 237 238 243 246 245 249 252 251 250 250 251 255 255 254 255 253 249 249 252 255 256 255 255 255 256 257 259 260 262 263 264 265 267 269 271 271 269 265 261 259 259 260 261 261 259 256 253 251 251 251 251 253 253 253 252 251 253 255 256 260 265 266 265 265 264
224 222 226 232 238 241 245 249 251 253 253 251 248 245 244 244 244 246 249 251 251 250 246 243 245 248 251 254 256 256 254 253 254 256 254 250 248 248 245 243 244 247 249 248 247 249 251 253 255 256 258 259 260 261 263 265 266 265 262 259 258 258 258 257 257 257 256 255 254 255 256 256 256 255 255 254 254 254 255 256 258 261 265 265 264 264 266
217 218 221 227 234 236 238 244 246 246 251 253 249 245 242 239 240 244 247 249 248 245 241 241 243 247 251 253 255 256 257 256 256 256 253 248 245 245 246 245 243 243 244 244 245 246 248 251 253 255 256 257 258 259 260 260 260 260 259 259 260 260 261 261 260 259 260 261 262 262 262 262 261 259 257 257 257 257 257 258 259 261 263 263 263 264 268
234 232 226 227 233 234 233 236 237 239 248 250 244 239 237 234 236 241 239 236 238 238 237 239 243 246 250 252 253 254 256 258 259 258 253 247 244 244 246 247 247 246 244 243 244 246 248 250 252 254 255 255 256 257 256 256 257 258 258 259 262 263 264 264 265 265 267 267 267 266 265 265 264 263 263 262 261 260 259 258 259 261 263 263 263 265 268
245 242 237 233 230 230 232 235 234 238 249 248 238 233 236 237 239 244 243 240 241 243 243 243 245 247 250 252 252 253 254 256 258 258 256 252 248 246 245 246 248 249 248 247 247 249 250 252 252 254 253 252 252 253 254 254 256 257 258 260 262 262 262 263 265 266 268 268 268 268 267 266 266 267 267 267 265 264 263 263 263 263 262 262 263 265 266
247 243 243 240 234 232 235 235 233 236 245 244 237 234 236 238 241 246 249 247 245 245 246 246 247 249 251 253 254 255 255 257 258 258 257 256 253 250 247 247 247 248 249 250 251 251 252 251 251 250 250 248 248 248 249 252 255 256 257 259 260 261 261 263 264 266 267 268 269 270 269 268 268 269 269 269 268 267 267 268 266 263 261 261 264 265 264
249 243 243 243 240 240 242 242 240 241 245 247 245 242 238 236 237 240 244 246 246 247 248 249 250 252 254 256 257 257 257 257 258 257 256 256 256 254 251 249 248 247 248 248 250 251 252 253 253 252 252 253 252 249 247 249 251 253 255 256 258 259 260 261 263 265 268 269 270 270 270 269 269 270 270 269 269 269 269 270 268 264 263 264 264 264 263
250 246 245 246 245 246 248 249 247 248 249 250 250 248 242 236 234 236 241 248 253 254 253 253 253 253 254 254 253 251 250 249 250 252 253 254 255 255 254 252 250 248 247 247 248 250 252 253 255 257 258 260 262 261 256 252 250 251 253 254 256 257 259 260 261 264 266 268 268 268 268 268 269 270 269 269 270 271 272 272 271 268 266 266 264 263 263
247 249 249 249 250 250 250 251 249 246 247 247 243 240 239 238 240 244 248 252 255 256 256 256 257 255 253 252 251 250 250 248 247 249 251 252 254 255 255 254 253 250 248 248 248 249 250 252 254 257 259 261 263 264 263 260 258 258 258 259 259 260 262 263 264 265 267 267 266 265 265 265 266 265 264 265 266 267 268 268 268 267 266 266 265 264 264
257 258 256 254 254 253 251 253 253 250 250 250 247 244 244 245 246 247 246 246 249 253 254 256 258 258 257 256 256 255 254 252 251 252 253 253 253 254 254 255 254 253 252 250 250 251 251 252 253 254 256 259 260 261 262 263 264 264 264 263 264 264 265 266 266 266 266 264 263 262 260 260 260 260 261 263 265 267 267 268 268 268 269 270 269 268 267
267 267 263 260 260 258 255 255 255 254 255 255 253 251 252 252 251 249 246 245 247 250 252 254 255 256 256 256 257 257 256 256 256 256 255 255 255 255 255 255 255 255 255 254 254 254 255 255 255 255 256 257 259 261 263 264 265 266 266 265 266 266 266 266 266 266 265 264 263 262 262 263 264 265 266 268 270 271 272 272 272 272 272 272 272 271 270
268 267 266 263 261 260 259 258 258 259 259 260 259 258 258 257 256 255 253 252 252 252 252 252 253 254 255 256 257 258 258 258 258 258 259 260 260 260 259 258 257 256 256 255 255 256 256 257 257 258 258 259 260 262 263 265 267 267 268 268 268 268 268 268 268 268 268 268 267 268 268 269 269 270 270 271 271 272 273 273 273 273 273 273 273 273 272
266 265 265 263 261 261 261 261 261 261 262 263 263 263 260 257 256 257 258 259 260 260 259 258 258 257 258 258 259 260 260 260 261 263 264 264 264 264 264 263 262 261 260 259 257 256 257 257 258 259 260 261 262 263 265 267 268 269 270 271 271 271 272 272 272 272 272 272 272 272 273 273 273 273 273 273 273 274 274 274 275 275 274 274 275 274 274
266 265 264 263 262 262 262 262 262 262 262 263 264 264 263 259 257 258 260 262 263 264 264 264 264 263 262 261 261 261 261 261 262 262 263 263 264 265 265 265 264 263 263 262 261 260 259 259 259 259 260 261 262 264 266 267 269 270 271 272 272 273 274 274 275 275 275 275 275 275 274 274 274 274 274 274 274 274 274 274 274 275 275 274 274 274 274
268 267 267 266 265 265 265 265 264 263 262 262 263 263 263 262 260 260 262 263 264 263 263 264 265 265 264 264 263 262 262 262 262 261 261 261 262 264 265 264 264 264 263 262 262 262 262 262 262 262 263 264 265 266 268 269 270 271 271 272 272 273 274 275 275 276 276 276 275 275 274 274 274 274 274 274 273 273 273 273 273 274 274 274 274 274 273
274 271 269 268 267 267 266 267 268 267 265 264 264 264 264 264 264 263 263 264 264 263 263 263 264 264 265 265 265 265 264 264 263 263 263 264 263 263 263 264 264 263 262 262 263 263 264 264 265 266 267 268 269 270 271 272 273 273 273 274 274 275 276 276 276 277 276 276 276 275 275 275 274 274 274 274 274 274 274 274 274 274 274 274 273 273 273
279 277 274 273 271 268 266 266 267 269 268 267 266 266 266 266 266 266 265 265 264 264 263 262 262 263 263 264 264 264 264 262 260 259 260 261 261 260 261 263 263 263 262 262 264 265 266 268 269 270 270 271 272 273 274 275 275 275 276 276 276 277 277 277 277 277 277 277 276 276 276 276 276 276 276 276 276 276 276 276 276 276 275 274 274 274 273
281 280 279 278 277 274 271 266 264 264 265 265 264 264 265 266 266 267 266 265 265 264 264 263 263 263 262 262 263 263 262 261 259 257 257 258 258 259 260 260 261 262 262 263 264 266 267 269 270 271 272 273 274 275 276 276 276 277 277 277 277 277 277 277 277 277 277 277 277 277 277 277 277 277 277 278 278 277 277 276 276 276 275 274 274 273 272
283 281 280 279 278 276 275 272 269 266 264 264 263 262 262 262 263 264 265 266 266 266 266 266 266 264 263 263 263 263 262 260 258 257 256 257 259 262 263 263 263 263 264 265 266 267 268 269 270 270 271 272 274 275 275 276 276 277 277 277 277 278 278 278 278 278 278 278 278 278 278 278 278 278 278 278 277 277 277 276 276 275 274 274 273 272 271
285 283 282 280 278 277 276 275 274 272 271 271 270 268 265 263 262 263 265 266 267 267 268 268 266 265 264 263 263 262 262 261 260 259 259 258 259 262 264 265 266 266 267 267 268 268 269 269 270 270 271 272 272 273 274 275 276 277 278 278 278 278 278 278 278 278 278 278 278 278 278 278 278 278 277 277 276 275 276 276 276 275 275 274 274 273 272
287 286 284 282 280 279 278 276 275 274 274 274 273 271 269 268 267 266 266 267 267 268 269 269 268 266 264 264 263 261 261 262 262 263 263 263 261 261 263 264 266 267 268 268 269 269 269 270 270 271 271 272 273 274 275 276 277 277 278 278 278 278 278 278 278 278 278 278 278 278 278 278 277 277 277 276 275 275 275 276 277 277 277 277 276 276 275
289 289 288 285 284 283 281 280 278 276 274 273 271 271 270 270 271 270 269 268 268 268 269 271 272 271 269 269 268 266 265 264 264 264 265 265 264 263 263 264 265 266 267 268 269 269 270 271 272 273 274 275 276 276 277 277 277 277 278 278 278 278 279 279 279 279 279 279 278 278 277 277 277 277 276 276 276 277 277 277 277 277 278 278 278 278 277
292 292 290 288 286 284 282 281 279 278 277 276 274 272 271 271 271 271 270 269 268 268 268 269 271 272 272 271 270 270 269 269 268 268 268 267 266 266 267 267 268 268 269 269 270 271 272 272 273 274 275 276 276 277 277 278 279 280 280 281 281 281 281 281 281 280 279 279 278 278 278 277 277 277 278 277 278 278 278 278 278 278 280 281 281 280 279
293 293 292 290 287 285 283 281 279 278 278 278 278 276 275 273 272 271 270 269 269 269 269 268 267 268 268 268 269 269 269 269 270 269 269 268 267 267 268 268 269 269 269 269 271 271 272 273 275 276 277 278 279 281 282 283 283 283 283 283 282 282 282 281 282 281 281 280 279 278 278 278 278 278 279 280 281 281 281 281 281 282 282 282 281 280 278
293 292 291 289 287 285 283 281 280 279 278 278 277 277 275 274 274 273 272 271 270 270 270 269 267 265 265 265 266 266 267 267 267 267 267 267 266 267 267 267 268 269 270 271 272 274 275 277 279 280 281 282 284 284 285 285 285 284 283 282 281 282 283 283 283 282 281 280 279 279 279 281 282 283 285 285 286 285 285 284 284 284 284 282 281 278 276
291 289 288 286 285 284 283 281 280 280 279 277 276 275 274 273 273 273 273 272 271 270 270 269 268 266 265 264 265 265 266 266 266 266 267 267 268 269 269 269 270 272 273 275 276 277 278 279 280 281 283 284 285 286 286 285 284 282 281 281 281 282 283 283 283 283 282 282 283 284 286 287 288 289 289 289 289 289 289 289 289 288 286 284 282 279 277
291 289 288 286 283 281 281 280 280 279 277 275 275 274 273 273 273 272 272 272 271 269 269 268 268 267 266 266 266 266 266 267 268 269 269 270 270 271 271 272 273 274 275 276 277 277 277 278 279 281 283 285 287 288 287 285 284 282 282 282 282 282 283 283 282 283 284 286 288 289 290 291 291 291 292 295 297 299 299 297 295 292 290 287 285 282 278
292 291 288 285 282 281 281 280 278 277 275 275 275 274 274 273 273 274 274 273 272 271 269 268 267 267 267 267 267 268 268 269 269 270 270 271 271 271 272 273 274 274 275 275 274 272 272 273 275 278 282 286 289 290 288 285 283 281 280 280 280 280 281 282 283 284 285 287 290 292 292 293 294 297 301 306 309 311 310 307 302 298 295 291 288 285 282
293 291 288 285 284 284 283 280 277 276 276 275 274 273 273 273 273 273 273 273 273 272 271 269 268 268 268 268 268 268 268 269 269 270 270 270 270 271 271 272 272 272 271 268 264 263 265 268 271 275 281 288 293 293 290 285 282 280 281 283 284 284 284 284 284 286 288 290 292 294 296 298 301 305 310 315 319 322 323 318 310 302 296 291 289 288 284
295 292 290 289 288 287 283 280 279 279 279 278 276 274 272 272 272 273 272 272 272 272 272 270 269 269 268 268 268 267 267 268 268 268 268 268 269 269 269 268 268 266 261 255 252 253 257 261 267 274 281 287 292 293 293 292 293 294 295 295 293 291 290 289 289 291 293 295 297 300 302 304 305 308 314 321 327 333 334 329 317 302 295 292 285 270 247
296 292 291 290 289 286 283 281 281 280 280 280 279 277 275 273 273 273 272 271 272 273 273 271 271 271 270 268 268 267 266 266 266 266 266 266 266 265 264 264 261 254 247 244 245 247 251 257 264 273 278 282 286 290 293 297 302 302 300 299 299 297 297 299 300 302 304 305 305 305 305 305 306 310 318 326 333 339 341 336 321 301 294 290 267 237 224
297 294 293 291 288 285 284 282 281 281 281 281 281 280 278 276 274 273 272 272 273 274 274 273 273 273 272 270 269 268 267 266 264 264 263 262 261 259 258 255 250 244 241 243 243 245 250 257 265 272 276 276 279 283 287 292 299 299 298 299 302 305 310 316 319 320 320 318 315 312 310 309 312 317 323 330 337 343 344 339 324 300 288 282 257 239 233
302 300 300 299 296 291 287 285 285 285 285 285 283 281 280 279 277 275 274 274 274 274 274 273 273 272 271 270 269 267 266 265 264 262 260 258 255 252 248 244 240 240 242 243 242 245 252 259 265 272 276 275 275 277 279 284 292 295 295 299 305 310 317 324 327 329 332 333 332 329 325 322 323 325 329 334 340 345 346 342 328 301 280 272 258 245 243
301 302 303 306 307 305 299 296 296 294 292 288 284 281 281 281 280 279 278 277 277 275 273 272 272 271 269 268 268 267 266 265 263 260 256 252 247 243 238 235 236 238 238 238 240 245 252 259 267 276 280 279 276 277 278 283 291 293 293 297 304 308 314 320 324 328 332 337 340 342 341 338 335 333 333 337 342 346 348 347 337 308 277 269 265 255 246
295 296 298 302 306 310 309 306 305 305 302 297 292 287 284 284 283 282 280 280 279 277 273 271 272 271 270 268 268 267 267 266 262 258 251 245 239 234 231 230 232 234 233 233 235 241 249 257 270 283 287 286 283 282 282 287 294 296 296 299 304 306 310 316 320 323 328 333 338 343 347 347 344 340 338 340 344 347 351 352 347 324 283 269 268 261 247
295 292 292 293 296 299 301 301 303 308 308 304 300 296 294 293 292 290 286 284 282 278 274 270 269 268 269 270 269 269 268 266 261 255 248 241 234 230 229 230 230 232 233 234 237 243 251 261 271 280 285 287 285 286 289 295 299 301 303 306 308 308 310 314 317 321 325 330 334 340 346 350 350 347 344 344 346 349 354 358 358 348 310 275 266 258 242
298 294 293 291 289 287 286 286 289 295 297 296 295 297 300 301 301 298 294 289 284 279 275 272 268 265 266 268 270 270 269 267 261 253 246 239 232 227 229 231 232 234 238 240 241 247 257 265 269 273 279 282 282 284 292 297 299 303 306 307 307 307 309 312 315 319 323 327 331 336 342 348 352 352 350 349 350 352 356 1 6 8 4 330 257 220 186
298 296 294 293 290 286 283 282 282 283 280 279 283 291 298 302 304 302 299 294 288 283 278 275 272 269 267 268 269 268 267 266 262 254 245 238 232 228 229 232 234 237 242 245 246 250 259 265 267 269 273 276 277 281 288 292 294 299 302 301 301 304 307 311 314 317 319 324 329 333 338 345 351 355 356 355 354 356 360 4 10 17 27 46 113 145 143
304 301 298 295 292 290 290 289 288 284 277 273 278 286 294 299 302 303 302 298 293 287 281 277 274 271 270 270 269 267 264 263 262 257 249 241 234 231 231 232 234 238 244 246 247 249 254 259 263 266 268 269 272 276 281 284 287 290 292 293 295 299 303 306 310 313 316 319 324 329 336 342 348 354 359 0 358 358 3 8 15 24 38 62 98 121 124
308 306 302 298 295 293 294 295 294 289 283 278 279 283 288 294 300 303 303 301 297 291 285 279 274 272 271 271 271 267 262 259 259 258 254 246 239 235 234 234 235 238 242 245 246 247 249 252 257 261 262 263 266 270 274 277 280 282 285 287 290 293 296 299 302 306 310 315 319 324 331 338 344 353 0 4 3 0 4 14 26 37 53 77 99 108 108
308 305 302 300 296 293 292 292 289 285 283 282 282 282 285 291 298 303 305 302 298 293 288 281 275 271 270 270 270 268 263 258 256 255 255 250 245 240 238 236 234 235 237 240 240 241 242 245 250 254 255 256 258 262 267 271 275 278 281 283 285 287 290 293 296 299 303 308 313 318 323 330 338 348 358 5 7 5 4 15 41 63 80 95 104 104 101
311 307 303 300 294 289 286 284 281 279 281 286 289 288 286 288 294 301 305 305 301 296 290 284 278 273 270 268 268 267 264 258 253 252 251 249 246 242 239 236 234 234 236 236 235 234 235 237 240 243 245 248 252 258 263 269 273 276 278 280 281 283 285 288 292 298 302 306 310 314 318 323 330 339 349 360 8 10 7 7 31 87 105 109 110 103 89
313 308 301 295 292 289 285 281 279 280 284 291 296 295 291 290 294 299 303 306 305 300 293 286 280 276 272 268 266 266 264 259 253 250 248 246 243 240 236 234 233 234 234 232 229 228 229 231 233 235 238 243 249 256 263 268 272 275 277 278 281 286 291 295 299 304 307 309 310 311 315 319 323 329 338 347 356 4 8 5 348 285 239 238 251 266 279
310 308 300 292 288 285 280 277 283 290 292 295 300 303 300 297 299 304 309 309 305 298 294 292 287 281 276 272 268 265 263 259 254 250 247 244 241 238 234 232 230 229 228 226 224 224 225 227 229 233 237 242 249 257 264 269 274 278 281 284 286 290 296 302 306 310 313 316 316 314 314 315 316 321 329 336 341 348 356 1 357 336 298 279 275 275 275
302 302 298 289 281 276 272 269 269 271 276 284 296 306 308 304 305 311 316 316 308 299 296 298 296 290 284 279 274 268 263 257 253 250 247 244 242 240 237 233 229 225 223 221 222 223 225 228 231 234 237 241 249 258 266 272 277 283 287 290 292 295 299 304 309 313 316 319 319 316 313 312 314 318 323 327 332 337 342 345 347 346 337 320 305 297 294
299 298 295 286 276 269 265 260 253 253 262 275 287 295 297 298 300 303 308 312 310 304 302 303 302 297 291 285 282 277 270 260 252 248 246 244 243 242 239 235 231 227 225 223 222 223 226 230 233 236 238 242 249 257 265 273 279 284 289 293 296 300 304 307 310 313 315 317 319 318 317 317 318 319 320 321 325 330 335 338 339 339 337 332 326 321 320
302 301 298 289 277 265 258 256 258 263 269 276 281 285 287 290 290 289 292 300 305 305 304 305 305 303 297 288 284 283 281 271 259 250 245 244 244 244 241 238 234 231 228 227 226 226 228 230 233 235 238 241 247 255 263 270 275 279 285 291 296 301 305 307 309 312 313 315 317 319 320 319 318 317 316 317 319 323 327 332 336 340 340 337 332 327 322
Height
5665 5667 5669 5672 5674 5674 5675 5677 5678 5681 5682 5683 5684 5685 5687 5688 5690 5690 5691 5694 5696 5698 5699 5700 5701 5702 5702 5704 5706 5708 5710 5712 5714 5714 5715 5716 5718 5719 5720 5720 5721 5722 5723 5724 5726 5728 5731 5732 5729 5727 5727 5727 5728 5730 5731 5733 5735 5737 5739 5740 5742 5744 5743 5742 5742 5744 5746 5747 5749 5750 5751 5751 5752 5753 5754 5755 5756 5756 5757 5757 5757 5758 5758 5758 5758 5758 5758
5662 5664 5666 5668 5670 5671 5672 5673 5675 5677 5679 5679 5680 5682 5684 5686 5687 5688 5689 5691 5693 5695 5697 5697 5698 5699 5700 5701 5703 5706 5709 5711 5712 5713 5713 5714 5715 5716 5717 5717 5718 5719 5720 5720 5722 5723 5724 5725 5726 5726 5726 5726 5727 5728 5728 5730 5732 5734 5736 5737 5739 5741 5741 5740 5739 5740 5742 5744 5745 5746 5747 5748 5750 5751 5751 5752 5753 5753 5754 5754 5755 5755 5755 5755 5755 5755 5755
5660 5661 5662 5663 5665 5667 5668 5669 5671 5673 5675 5676 5677 5679 5681 5682 5684 5685 5687 5689 5691 5692 5693 5693 5694 5696 5696 5697 5699 5702 5706 5708 5710 5711 5711 5712 5713 5714 5714 5714 5715 5716 5717 5718 5719 5719 5719 5720 5720 5721 5721 5722 5724 5725 5726 5727 5729 5731 5733 5734 5736 5737 5738 5737 5737 5737 5739 5741 5742 5743 5744 5745 5746 5747 5748 5749 5750 5750 5751 5751 5752 5752 5752 5752 5752 5752 5752
5657 5658 5658 5659 5661 5662 5664 5665 5667 5670 5672 5674 5675 5676 5678 5679 5681 5682 5684 5686 5688 5689 5691 5691 5692 5693 5693 5694 5696 5699 5703 5706 5708 5709 5710 5710 5711 5711 5712 5712 5713 5713 5714 5715 5716 5716 5716 5716 5716 5717 5718 5719 5720 5722 5723 5725 5726 5727 5729 5731 5733 5735 5735 5735 5736 5737 5737 5738 5739 5740 5741 5741 5743 5744 5744 5745 5746 5747 5747 5748 5748 5749 5749 5749 5749 5749 5748
5653 5654 5655 5656 5658 5659 5659 5661 5664 5667 5670 5672 5673 5674 5675 5677 5678 5679 5679 5681 5683 5685 5688 5689 5689 5689 5690 5690 5692 5696 5700 5703 5705 5707 5708 5708 5708 5709 5710 5711 5711 5712 5712 5713 5713 5713 5713 5713 5713 5714 5715 5716 5717 5718 5720 5722 5723 5724 5726 5729 5730 5732 5732 5733 5734 5734 5735 5735 5736 5736 5737 5738 5739 5740 5741 5742 5742 5743 5743 5744 5744 5745 5745 5745 5745 5744 5744
5650 5651 5652 5654 5655 5656 5657 5658 5661 5663 5665 5668 5670 5671 5672 5674 5676 5676 5676 5677 5679 5682 5685 5686 5685 5686 5686 5686 5688 5693 5696 5699 5701 5703 5704 5705 5705 5705 5707 5708 5708 5709 5709 5710 5710 5710 5710 5710 5710 5711 5711 5712 5713 5714 5716 5719 5720 5722 5723 5725 5726 5727 5728 5729 5729 5730 5731 5731 5732 5732 5733 5734 5735 5736 5737 5737 5738 5738 5739 5739 5739 5739 5740 5740 5740 5740 5739
5647 5648 5650 5651 5652 5654 5655 5657 5658 5659 5660 5663 5665 5666 5669 5672 5673 5673 5673 5673 5675 5679 5681 5683 5682 5682 5683 5684 5685 5688 5691 5694 5697 5698 5700 5701 5701 5702 5703 5704 5705 5706 5706 5707 5707 5707 5707 5708 5708 5708 5708 5708 5709 5711 5713 5715 5716 5718 5719 5720 5721 5722 5723 5723 5724 5724 5725 5726 5726 5726 5728 5729 5730 5731 5732 5732 5732 5733 5733 5733 5733 5734 5735 5735 5735 5734 5734
5644 5645 5647 5648 5651 5652 5654 5655 5656 5657 5657 5659 5660 5662 5665 5667 5668 5670 5670 5671 5673 5675 5677 5678 5678 5678 5679 5680 5681 5684 5687 5690 5692 5694 5695 5696 5697 5698 5699 5700 5701 5702 5703 5704 5704 5704 5705 5706 5706 5706 5706 5706 5707 5708 5710 5712 5713 5714 5714 5714 5715 5716 5716 5717 5718 5719 5720 5720 5721 5721 5722 5723 5724 5725 5726 5726 5727 5727 5728 5728 5728 5729 5729 5730 5729 5729 5728
5642 5644 5645 5646 5648 5650 5651 5653 5653 5654 5655 5656 5657 5658 5660 5662 5664 5665 5666 5668 5670 5671 5672 5673 5674 5675 5676 5677 5678 5681 5684 5686 5687 5688 5689 5691 5692 5694 5695 5697 5698 5698 5699 5700 5700 5701 5703 5703 5704 5703 5703 5703 5703 5705 5707 5708 5709 5709 5709 5709 5709 5710 5711 5711 5712 5713 5714 5715 5715 5716 5717 5718 5718 5719 5720 5720 5721 5722 5722 5722 5723 5723 5723 5724 5723 5723 5722
5639 5641 5642 5644 5646 5647 5648 5649 5650 5652 5652 5652 5654 5655 5656 5658 5660 5661 5662 5665 5666 5666 5668 5669 5670 5671 5672 5673 5675 5678 5680 5681 5681 5682 5684 5686 5688 5690 5691 5692 5693 5694 5695 5696 5696 5698 5699 5699 5700 5700 5699 5699 5699 5699 5701 5703 5704 5704 5704 5704 5704 5705 5705 5705 5705 5706 5707 5708 5708 5709 5710 5711 5711 5712 5712 5713 5714 5715 5715 5716 5716 5716 5716 5717 5717 5716 5715
5636 5638 5639 5641 5643 5644 5645 5646 5647 5649 5649 5648 5650 5651 5652 5655 5657 5658 5659 5662 5662 5662 5664 5665 5667 5668 5669 5670 5672 5674 5676 5677 5676 5677 5679 5681 5683 5684 5686 5687 5688 5689 5690 5691 5692 5693 5694 5694 5694 5694 5694 5694 5694 5694 5695 5697 5698 5698 5698 5698 5698 5699 5699 5699 5700 5700 5701 5701 5702 5702 5703 5703 5704 5704 5705 5706 5706 5707 5707 5708 5708 5709 5709 5709 5710 5709 5709
5632 5634 5636 5638 5640 5641 5642 5643 5644 5646 5646 5646 5647 5648 5650 5653 5655 5655 5656 5657 5657 5659 5660 5662 5663 5664 5665 5667 5669 5671 5672 5673 5672 5672 5674 5676 5676 5678 5680 5681 5682 5684 5684 5685 5686 5687 5688 5688 5688 5688 5688 5688 5689 5689 5690 5691 5692 5692 5693 5693 5693 5694 5694 5694 5694 5695 5695 5695 5695 5696 5696 5697 5697 5697 5697 5698 5698 5699 5699 5700 5700 5701 5701 5702 5702 5702 5702
5629 5631 5633 5635 5637 5638 5639 5640 5641 5642 5643 5644 5645 5646 5648 5650 5652 5652 5653 5654 5654 5656 5658 5659 5660 5662 5663 5664 5666 5667 5668 5669 5668 5668 5669 5670 5671 5672 5674 5675 5676 5677 5678 5679 5680 5680 5681 5682 5682 5682 5683 5683 5683 5684 5686 5686 5687 5687 5687 5688 5688 5689 5689 5689 5689 5689 5690 5690 5690 5690 5690 5691 5691 5691 5691 5691 5691 5691 5691 5692 5692 5693 5693 5693 5694 5694 5694
5627 5629 5631 5633 5634 5635 5636 5636 5637 5638 5639 5640 5641 5644 5646 5648 5649 5649 5650 5651 5651 5653 5654 5655 5656 5657 5659 5660 5661 5663 5664 5664 5664 5664 5665 5666 5667 5667 5668 5669 5670 5671 5672 5673 5673 5674 5675 5676 5676 5677 5677 5678 5678 5679 5680 5681 5682 5682 5682 5682 5683 5683 5684 5684 5684 5684 5684 5684 5684 5685 5685 5685 5685 5686 5685 5685 5684 5684 5684 5684 5684 5684 5684 5684 5685 5686 5686
5626 5627 5629 5630 5631 5631 5632 5633 5634 5635 5635 5636 5638 5641 5642 5644 5645 5645 5646 5647 5648 5648 5649 5650 5651 5652 5654 5655 5656 5658 5659 5659 5660 5660 5661 5662 5662 5663 5663 5664 5664 5665 5666 5667 5668 5668 5669 5670 5670 5671 5672 5672 5673 5674 5674 5675 5676 5677 5677 5677 5678 5678 5678 5678 5678 5678 5679 5679 5678 5679 5679 5678 5679 5679 5678 5678 5677 5676 5676 5676 5676 5676 5676 5676 5676 5678 5678
5623 5624 5626 5628 5628 5628 5628 5629 5630 5631 5631 5632 5635 5638 5638 5639 5640 5641 5642 5643 5644 5644 5645 5646 5646 5647 5648 5650 5651 5652 5653 5653 5655 5655 5656 5657 5658 5658 5659 5659 5660 5660 5661 5662 5663 5662 5663 5664 5664 5665 5665 5666 5666 5667 5668 5668 5669 5669 5670 5670 5671 5671 5671 5671 5671 5671 5672 5672 5672 5672 5672 5672 5672 5672 5671 5670 5669 5668 5668 5667 5667 5667 5667 5666 5666 5668 5668
5620 5621 5623 5624 5624 5624 5625 5626 5627 5628 5628 5629 5632 5634 5634 5634 5635 5635 5636 5637 5638 5639 5640 5641 5641 5642 5643 5645 5646 5646 5647 5648 5649 5650 5650 5651 5653 5653 5653 5654 5655 5655 5656 5657 5657 5656 5657 5658 5658 5658 5659 5659 5660 5661 5661 5661 5662 5662 5662 5663 5663 5663 5663 5663 5664 5664 5664 5664 5664 5664 5664 5664 5663 5663 5663 5662 5661 5660 5659 5658 5658 5658 5657 5657 5656 5657 5658
5617 5618 5619 5621 5620 5620 5622 5623 5623 5624 5624 5625 5627 5629 5630 5630 5630 5630 5630 5631 5633 5634 5635 5636 5637 5638 5639 5640 5641 5642 5642 5643 5644 5645 5645 5646 5647 5648 5647 5647 5648 5649 5650 5651 5651 5650 5651 5652 5652 5651 5652 5652 5653 5654 5654 5654 5654 5655 5655 5655 5655 5655 5655 5655 5656 5656 5656 5656 5655 5655 5655 5654 5654 5653 5653 5652 5651 5650 5649 5648 5647 5647 5647 5647 5646 5646 5646
5613 5614 5615 5616 5616 5617 5618 5619 5619 5620 5621 5621 5622 5623 5625 5625 5625 5625 5625 5626 5628 5629 5629 5630 5630 5632 5633 5635 5636 5637 5637 5637 5639 5640 5640 5640 5641 5642 5642 5641 5641 5642 5643 5643 5643 5643 5644 5645 5645 5644 5645 5645 5647 5647 5647 5647 5647 5647 5647 5647 5647 5647 5647 5647 5647 5647 5647 5647 5646 5646 5645 5644 5644 5643 5642 5641 5641 5640 5638 5638 5637 5636 5636 5636 5635 5635 5635
5609 5610 5611 5611 5612 5613 5615 5615 5615 5615 5616 5616 5617 5617 5618 5619 5619 5619 5619 5620 5622 5623 5623 5623 5624 5626 5627 5628 5629 5630 5631 5631 5633 5633 5633 5634 5635 5636 5635 5634 5634 5636 5637 5636 5636 5636 5637 5637 5637 5637 5638 5639 5640 5641 5640 5640 5640 5640 5640 5640 5640 5640 5640 5639 5639 5638 5638 5638 5637 5636 5635 5634 5633 5632 5631 5631 5630 5629 5628 5627 5626 5625 5625 5625 5624 5624 5624
5605 5606 5606 5607 5608 5610 5611 5611 5610 5610 5610 5611 5612 5612 5612 5613 5614 5614 5614 5614 5615 5616 5617 5617 5618 5621 5622 5621 5622 5624 5624 5625 5626 5626 5627 5628 5628 5628 5628 5628 5628 5630 5630 5629 5629 5629 5629 5630 5630 5631 5631 5631 5632 5632 5632 5632 5632 5632 5632 5632 5632 5631 5631 5630 5630 5629 5628 5628 5627 5626 5625 5624 5623 5622 5621 5620 5619 5618 5616 5615 5615 5614 5614 5614 5613 5612 5612
5601 5601 5601 5602 5604 5605 5607 5607 5606 5605 5605 5606 5607 5607 5607 5607 5607 5607 5607 5607 5607 5608 5609 5610 5612 5615 5615 5614 5615 5617 5618 5619 5620 5621 5622 5622 5621 5621 5622 5622 5622 5623 5623 5622 5622 5622 5622 5623 5623 5623 5623 5624 5624 5624 5624 5624 5623 5623 5623 5623 5623 5622 5621 5620 5620 5619 5618 5617 5616 5615 5614 5613 5612 5611 5610 5608 5607 5607 5605 5604 5603 5602 5601 5602 5602 5601 5601
5598 5597 5598 5599 5599 5599 5601 5602 5602 5602 5602 5602 5603 5603 5602 5602 5602 5602 5601 5601 5601 5601 5602 5603 5606 5608 5608 5607 5608 5610 5611 5612 5614 5615 5615 5614 5614 5615 5616 5615 5615 5616 5615 5615 5615 5615 5615 5616 5616 5615 5616 5616 5615 5615 5615 5615 5615 5614 5614 5614 5613 5612 5611 5611 5610 5609 5608 5607 5605 5604 5603 5602 5602 5601 5600 5598 5596 5595 5594 5593 5592 5591 5589 5589 5590 5590 5590
5594 5594 5595 5595 5595 5595 5596 5596 5596 5598 5598 5598 5598 5599 5598 5598 5598 5597 5596 5596 5596 5596 5596 5597 5600 5601 5601 5601 5602 5602 5603 5605 5607 5607 5606 5607 5608 5609 5608 5607 5608 5608 5608 5608 5608 5608 5608 5608 5608 5608 5608 5608 5608 5607 5607 5606 5606 5606 5606 5605 5604 5603 5602 5601 5600 5600 5598 5597 5596 5595 5594 5592 5591 5591 5591 5589 5587 5585 5583 5582 5582 5581 5579 5579 5579 5579 5579
5591 5591 5591 5591 5591 5591 5591 5592 5592 5593 5593 5593 5593 5594 5594 5594 5593 5593 5592 5592 5592 5592 5592 5592 5594 5596 5596 5596 5596 5596 5596 5597 5598 5598 5598 5601 5603 5602 5599 5599 5600 5600 5600 5601 5601 5601 5601 5601 5600 5601 5601 5601 5600 5600 5599 5599 5598 5598 5597 5597 5596 5595 5593 5592 5591 5590 5589 5588 5587 5586 5585 5583 5582 5582 5581 5580 5579 5577 5575 5573 5572 5572 5571 5570 5570 5569 5570
5588 5587 5588 5588 5587 5587 5587 5587 5588 5588 5588 5588 5588 5588 5588 5588 5588 5588 5588 5587 5587 5587 5587 5587 5588 5590 5591 5591 5591 5591 5591 5591 5591 5591 5592 5594 5595 5593 5592 5592 5593 5593 5594 5594 5594 5594 5594 5593 5593 5594 5593 5593 5593 5593 5592 5591 5591 5590 5590 5589 5588 5587 5586 5585 5584 5582 5581 5580 5579 5578 5577 5575 5574 5574 5573 5572 5571 5570 5569 5567 5565 5564 5563 5564 5563 5562 5562
5585 5585 5584 5584 5584 5584 5583 5583 5584 5584 5583 5584 5584 5584 5584 5583 5583 5583 5583 5583 5583 5583 5583 5583 5583 5584 5585 5585 5585 5585 5586 5586 5586 5586 5587 5588 5588 5587 5586 5587 5587 5587 5588 5588 5587 5588 5588 5587 5587 5587 5587 5587 5587 5586 5585 5585 5584 5584 5583 5582 5581 5580 5578 5577 5576 5575 5574 5573 5572 5571 5570 5568 5568 5567 5566 5565 5564 5563 5563 5562 5561 5559 5558 5557 5557 5556 5555
5582 5582 5581 5581 5580 5580 5580 5579 5579 5579 5578 5579 5580 5580 5579 5579 5579 5579 5579 5579 5579 5579 5580 5580 5580 5580 5580 5580 5580 5580 5580 5581 5581 5582 5582 5583 5582 5582 5582 5582 5582 5583 5583 5583 5582 5583 5582 5582 5582 5581 5581 5581 5581 5580 5579 5579 5578 5577 5576 5575 5574 5572 5571 5570 5569 5568 5567 5567 5566 5565 5564 5563 5562 5561 5561 5560 5559 5558 5557 5557 5556 5554 5553 5551 5550 5549 5548
5579 5579 5578 5577 5577 5576 5575 5575 5575 5574 5574 5575 5575 5575 5575 5574 5574 5574 5575 5575 5575 5575 5576 5576 5576 5576 5576 5576 5575 5576 5576 5576 5577 5577 5577 5577 5577 5577 5578 5578 5578 5578 5578 5578 5578 5578 5577 5577 5577 5576 5576 5576 5575 5574 5573 5573 5572 5571 5570 5569 5568 5567 5566 5565 5564 5563 5563 5562 5561 5561 5560 5559 5558 5557 5556 5555 5554 5553 5552 5551 5549 5548 5546 5544 5542 5540 5539
5577 5576 5575 5574 5573 5572 5571 5571 5570 5570 5571 5571 5571 5571 5571 5570 5569 5569 5570 5570 5571 5571 5572 5572 5572 5572 5572 5572 5572 5572 5572 5572 5573 5573 5573 5573 5573 5573 5573 5573 5573 5573 5573 5573 5573 5573 5573 5572 5572 5571 5571 5570 5570 5569 5568 5567 5566 5566 5565 5564 5563 5563 5562 5561 5560 5560 5559 5558 5557 5557 5556 5555 5554 5553 5552 5551 5550 5548 5547 5545 5543 5541 5538 5536 5533 5530 5528
5573 5572 5571 5570 5569 5568 5567 5567 5566 5566 5566 5566 5566 5566 5566 5566 5565 5565 5565 5566 5567 5567 5567 5567 5567 5568 5568 5568 5568 5568 5568 5568 5568 5569 5569 5569 5569 5569 5569 5569 5569 5569 5569 5569 5569 5568 5568 5568 5567 5567 5567 5566 5565 5565 5564 5563 5563 5562 5561 5561 5560 5559 5559 5558 5557 5556 5556 5555 5554 5553 5553 5552 5551 5549 5548 5547 5545 5543 5541 5538 5535 5532 5528 5525 5522 5519 5517
5569 5568 5567 5566 5565 5564 5563 5563 5563 5562 5562 5561 5562 5562 5562 5561 5561 5561 5561 5562 5562 5563 5563 5563 5563 5563 5563 5564 5564 5564 5564 5564 5564 5564 5565 5565 5565 5565 5565 5565 5565 5565 5565 5565 5565 5564 5564 5564 5564 5563 5563 5563 5562 5562 5561 5560 5560 5559 5559 5558 5557 5557 5556 5555 5554 5554 5553 5552 5551 5550 5549 5548 5547 5546 5544 5542 5540 5537 5534 5530 5526 5521 5517 5514 5512 5510 5509
5565 5564 5563 5562 5561 5560 5560 5559 5559 5558 5557 5557 5558 5558 5558 5557 5557 5557 5557 5558 5558 5558 5558 5559 5559 5559 5559 5560 5560 5560 5560 5560 5560 5560 5561 5561 5561 5561 5561 5561 5561 5561 5561 5561 5561 5561 5561 5561 5561 5561 5561 5560 5560 5559 5558 5558 5557 5557 5556 5555 5555 5554 5553 5552 5552 5551 5550 5549 5548 5547 5546 5545 5543 5542 5540 5538 5535 5532 5527 5522 5517 5513 5510 5509 5507 5506 5506
5560 5559 5558 5557 5557 5556 5556 5555 5555 5554 5554 5553 5554 5554 5554 5554 5554 5554 5554 5554 5554 5554 5554 5555 5555 5555 5555 5555 5556 5556 5556 5556 5557 5557 5557 5557 5557 5557 5557 5557 5557 5558 5558 5558 5559 5559 5559 5559 5559 5559 5559 5559 5558 5557 5556 5556 5555 5554 5554 5553 5552 5551 5551 5550 5549 5548 5547 5546 5545 5544 5543 5541 5540 5538 5536 5533 5530 5526 5521 5516 5511 5509 5507 5506 5505 5504 5504
5555 5554 5553 5553 5553 5552 5552 5551 5551 5551 5550 5550 5550 5550 5550 5550 5550 5550 5550 5550 5551 5551 5550 5551 5551 5551 5551 5552 5552 5552 5552 5553 5553 5553 5553 5553 5553 5554 5554 5554 5554 5555 5555 5556 5556 5557 5557 5557 5557 5557 5557 5557 5556 5556 5555 5554 5553 5552 5551 5550 5550 5549 5548 5547 5546 5545 5544 5543 5542 5541 5539 5538 5536 5534 5532 5529 5526 5521 5516 5511 5508 5506 5505 5504 5504 5503 5503
5550 5549 5549 5549 5548 5548 5547 5547 5547 5547 5547 5546 5546 5546 5546 5546 5547 5547 5546 5547 5547 5547 5547 5547 5547 5547 5548 5548 5548 5549 5549 5549 5549 5549 5550 5550 5550 5550 5550 5551 5552 5553 5553 5554 5554 5555 5555 5556 5556 5556 5556 5555 5555 5554 5553 5552 5551 5551 5550 5549 5548 5547 5546 5545 5544 5543 5541 5540 5539 5538 5536 5535 5533 5531 5528 5526 5522 5518 5513 5509 5506 5504 5503 5503 5502 5502 5502
5546 5545 5545 5545 5544 5544 5544 5543 5543 5543 5544 5543 5543 5542 5542 5543 5543 5543 5543 5543 5544 5544 5543 5543 5544 5544 5544 5544 5545 5545 5545 5546 5546 5546 5546 5546 5547 5547 5548 5548 5550 5550 5551 5552 5552 5553 5553 5554 5554 5554 5554 5554 5553 5552 5552 5551 5550 5549 5549 5548 5546 5545 5544 5543 5542 5541 5539 5538 5537 5535 5534 5532 5530 5528 5525 5523 5519 5515 5511 5507 5504 5503 5502 5501 5501 5501 5502
5543 5542 5542 5541 5541 5540 5540 5540 5540 5540 5540 5540 5540 5540 5539 5539 5540 5540 5539 5540 5540 5540 5540 5540 5540 5541 5541 5541 5541 5542 5542 5542 5542 5543 5543 5543 5544 5544 5545 5546 5547 5548 5549 5550 5550 5551 5551 5552 5552 5552 5552 5552 5551 5551 5550 5549 5548 5548 5547 5546 5545 5544 5543 5542 5540 5539 5538 5536 5535 5533 5531 5530 5528 5525 5523 5520 5517 5513 5509 5505 5502 5501 5500 5500 5500 5500 5501
5540 5540 5539 5539 5538 5538 5538 5537 5537 5537 5537 5537 5537 5537 5537 5536 5536 5536 5536 5537 5537 5537 5537 5537 5537 5538 5538 5538 5538 5538 5539 5539 5539 5539 5540 5540 5541 5542 5543 5544 5545 5546 5547 5548 5548 5549 5549 5550 5550 5550 5550 5549 5549 5548 5548 5547 5547 5546 5545 5544 5544 5542 5541 5540 5539 5538 5536 5535 5533 5531 5529 5528 5525 5523 5520 5518 5515 5512 5508 5504 5500 5499 5499 5499 5499 5499 5499
5538 5537 5537 5536 5536 5536 5535 5535 5535 5535 5535 5534 5534 5534 5534 5534 5534 5533 5533 5534 5534 5534 5534 5534 5534 5534 5535 5535 5535 5535 5536 5536 5536 5536 5537 5537 5538 5539 5541 5542 5543 5544 5545 5546 5546 5547 5548 5548 5548 5548 5547 5547 5547 5546 5546 5545 5545 5544 5544 5543 5542 5541 5540 5539 5538 5536 5535 5533 5531 5530 5528 5526 5524 5521 5519 5516 5513 5511 5507 5503 5499 5497 5497 5498 5498 5498 5498
5535 5535 5534 5534 5534 5534 5533 5533 5533 5533 5532 5532 5531 5531 5532 5532 5531 5531 5531 5531 5531 5531 5531 5531 5531 5531 5532 5532 5532 5532 5533 5533 5533 5534 5534 5535 5536 5537 5539 5539 5540 5541 5543 5543 5544 5545 5545 5546 5546 5546 5546 5545 5545 5544 5544 5543 5543 5542 5542 5541 5540 5539 5539 5537 5536 5535 5533 5532 5530 5528 5527 5525 5522 5520 5518 5515 5513 5510 5506 5503 5499 5497 5497 5497 5497 5497 5498
5533 5532 5532 5531 5531 5531 5531 5530 5530 5530 5530 5530 5529 5529 5529 5529 5529 5529 5528 5528 5528 5528 5528 5528 5529 5529 5529 5529 5529 5530 5530 5530 5531 5531 5532 5532 5533 5535 5536 5537 5538 5539 5540 5541 5542 5543 5543 5543 5544 5544 5543 5543 5543 5542 5542 5541 5541 5540 5540 5539 5539 5538 5537 5536 5535 5533 5532 5530 5529 5527 5526 5524 5522 5519 5517 5515 5512 5510 5506 5503 5500 5498 5497 5497 5497 5497 5498
5531 5530 5530 5529 5529 5529 5528 5528 5528 5528 5528 5528 5527 5527 5527 5527 5527 5526 5526 5526 5526 5526 5526 5526 5526 5526 5526 5527 5527 5527 5527 5528 5528 5529 5529 5530 5531 5533 5534 5534 5536 5537 5538 5539 5540 5540 5541 5541 5542 5542 5541 5541 5541 5541 5540 5540 5539 5539 5538 5538 5537 5536 5535 5534 5533 5532 5530 5529 5528 5526 5525 5523 5521 5519 5517 5514 5512 5510 5507 5504 5501 5499 5498 5497 5497 5498 5498
5528 5528 5527 5527 5526 5526 5526 5525 5525 5525 5525 5525 5525 5525 5525 5525 5524 5524 5524 5523 5523 5523 5523 5523 5523 5523 5523 5524 5524 5525 5525 5525 5526 5526 5527 5528 5529 5530 5531 5532 5533 5534 5535 5536 5537 5538 5538 5539 5539 5539 5539 5539 5539 5539 5539 5538 5538 5537 5537 5536 5535 5535 5534 5533 5531 5530 5529 5528 5526 5525 5524 5522 5520 5518 5516 5514 5512 5510 5508 5505 5503 5501 5500 5499 5499 5499 5500
5526 5525 5525 5524 5523 5523 5523 5523 5523 5523 5523 5523 5522 5523 5523 5522 5522 5522 5521 5521 5521 5521 5521 5520 5521 5521 5521 5521 5521 5522 5522 5523 5524 5524 5525 5525 5526 5527 5528 5529 5531 5532 5533 5534 5534 5535 5536 5536 5537 5537 5537 5537 5537 5536 5536 5536 5536 5536 5535 5534 5534 5533 5532 5531 5530 5529 5528 5526 5525 5524 5523 5521 5520 5518 5516 5514 5513 5511 5509 5507 5505 5504 5502 5502 5502 5502 5502
5524 5523 5522 5521 5521 5521 5521 5521 5521 5521 5521 5520 5520 5520 5520 5520 5520 5520 5519 5519 5519 5518 5518 5518 5518 5518 5518 5518 5519 5519 5520 5520 5521 5522 5522 5523 5524 5525 5526 5527 5528 5529 5530 5531 5532 5532 5533 5534 5534 5534 5534 5534 5534 5534 5534 5534 5534 5534 5533 5532 5532 5531 5531 5530 5529 5528 5527 5526 5524 5523 5522 5521 5519 5518 5516 5515 5513 5511 5510 5509 5507 5506 5505 5505 5504 5504 5504
5522 5521 5520 5519 5519 5519 5519 5519 5519 5519 5519 5518 5518 5518 5518 5518 5518 5518 5517 5517 5516 5516 5516 5516 5516 5515 5516 5516 5516 5517 5517 5518 5519 5519 5520 5520 5521 5522 5523 5524 5525 5526 5527 5528 5529 5529 5530 5531 5531 5532 5532 5532 5532 5532 5532 5531 5531 5531 5531 5531 5530 5529 5529 5528 5527 5527 5526 5525 5524 5522 5521 5520 5519 5517 5516 5515 5513 5512 5511 5510 5509 5508 5507 5507 5506 5506 5505
5520 5519 5518 5517 5517 5517 5517 5517 5517 5517 5517 5516 5516 5516 5516 5516 5516 5515 5515 5515 5514 5514 5514 5514 5513 5513 5513 5513 5514 5514 5515 5515 5516 5516 5517 5518 5519 5520 5520 5521 5522 5523 5524 5525 5526 5527 5527 5528 5529 5529 5529 5529 5529 5529 5529 5529 5529 5529 5529 5528 5528 5528 5527 5526 5526 5525 5524 5523 5522 5521 5520 5519 5518 5517 5516 5514 5513 5512 5511 5510 5509 5509 5508 5507 5507 5506 5506
5517 5516 5516 5515 5515 5515 5515 5515 5515 5515 5515 5514 5514 5514 5514 5514 5514 5513 5513 5513 5512 5512 5512 5512 5511 5511 5511 5511 5511 5512 5512 5513 5513 5514 5515 5516 5516 5517 5518 5519 5519 5520 5521 5522 5523 5524 5524 5525 5526 5526 5527 5527 5527 5527 5527 5527 5527 5526 5526 5526 5526 5526 5525 5525 5524 5523 5523 5522 5521 5520 5519 5518 5517 5516 5515 5514 5513 5512 5511 5510 5509 5508 5508 5507 5506 5506 5505
5514 5514 5513 5513 5512 5513 5513 5513 5514 5514 5513 5513 5512 5512 5512 5512 5512 5512 5511 5511 5511 5510 5510 5510 5509 5509 5509 5509 5509 5509 5510 5510 5511 5512 5512 5513 5514 5515 5515 5516 5517 5517 5518 5519 5520 5521 5522 5523 5523 5524 5524 5525 5525 5525 5525 5525 5524 5524 5524 5524 5524 5523 5523 5522 5522 5521 5521 5520 5519 5519 5518 5517 5516 5515 5514 5513 5512 5511 5510 5509 5509 5508 5507 5506 5506 5505 5504
5511 5510 5510 5510 5510 5510 5511 5511 5512 5512 5512 5512 5511 5510 5510 5510 5510 5510 5510 5509 5509 5509 5508 5508 5507 5507 5507 5507 5507 5507 5507 5508 5508 5509 5510 5511 5511 5512 5513 5513 5514 5515 5516 5516 5517 5518 5519 5520 5521 5521 5522 5522 5522 5522 5522 5522 5522 5522 5522 5522 5521 5521 5521 5520 5520 5519 5518 5518 5517 5517 5516 5515 5514 5513 5513 5512 5511 5510 5509 5509 5508 5507 5506 5506 5505 5504 5504
5508 5507 5506 5506 5507 5508 5508 5509 5509 5510 5510 5510 5509 5509 5508 5507 5507 5507 5507 5507 5507 5507 5506 5506 5505 5505 5505 5505 5505 5505 5506 5506 5506 5506 5507 5508 5509 5510 5510 5511 5512 5512 5513 5514 5515 5516 5516 5517 5518 5518 5519 5519 5520 5520 5520 5520 5520 5520 5520 5520 5519 5519 5519 5518 5518 5517 5516 5516 5515 5515 5514 5513 5513 5512 5511 5511 5510 5509 5508 5508 5507 5506 5505 5505 5504 5503 5503